Regional Weather Roundup
Issued by NWS Newport/Morehead, NC

Current Version | Previous Version | Graphics & Text | Print | Product List | Glossary Off
Versions: 1 2 3 4 5 6 7 8 9 10 11 12 13 14 15 16 17 18 19 20 21 22 23 24 25 26 27 28 29 30 31 32 33 34 35 36 37 38 39 40 41 42 43 44 45 46 47 48 49 50

000
ASUS42 KMHX 181924
RWRMHX
WEATHER ROUNDUP FOR EASTERN NORTH CAROLINA
NATIONAL WEATHER SERVICE NEWPORT/MOREHEAD CITY NC
300 PM EDT SAT APR 18 2015

NOTE: "FAIR" INDICATES FEW OR NO CLOUDS BELOW 12,000 FEET
WITH NO SIGNIFICANT WEATHER AND/OR OBSTRUCTIONS TO VISIBILITY

NCZ015>017-031-032-045>047-102-103-182000-
NORTH COAST

CITY           SKY/WX    TMP DP  RH WIND       PRES   REMARKS
EDENTON        PTSUNNY   72  63  73 NE10      29.96R
ELIZABETH CITY LGT RAIN  73  62  68 NE9       29.95F
KITTY HAWK     PTCLDY    65  59  80 NE6       29.95F
MANTEO         MOSUNNY   69  62  79 NE9       29.96F

$$

NCZ045>047-081-094-103-104-182000-
CENTRAL COAST

CITY           SKY/WX    TMP DP  RH WIND       PRES   REMARKS
FRISCO         PTSUNNY   68  62  81 S6        29.95F
SWANQUARTER      N/A     77 N/A N/A S12       29.91S

$$

NCZ095-097-098-100-101-182000-
SOUTHERN COAST

CITY           SKY/WX    TMP DP  RH WIND       PRES   REMARKS
BEAUFORT       CLOUDY    72  68  87 SW6       29.97F
CEDAR ISLAND     N/A     72 N/A N/A E3        30.00S
JACKSONVILLE   CLOUDY    76  65  68 E5        29.96F
PINEY ISLAND   MOCLDY   N/A N/A N/A E5        29.95F
WILMINGTON     CLOUDY    73  64  73 SE6       29.97F


$$

NCZ011>013-027>030-043-044-078>080-089-090>093-098-182000-
COASTAL PLAIN

CITY           SKY/WX    TMP DP  RH WIND       PRES   REMARKS
AHOSKIE        PTSUNNY   78  60  53 E3        29.94F
CLINTON        DRIZZLE   72  68  87 CALM      29.98F
ELIZABETHTOWN  CLOUDY    74  65  73 E3        29.97F
GOLDSBORO      PTSUNNY   77  64  64 CALM      29.94F
GREENVILLE     MOSUNNY   81  61  50 CALM      29.97F
HAVELOCK       PTSUNNY   75  65  70 SE3       29.97F
KENANSVILLE    CLOUDY    74  64  70 CALM      29.97F
KINSTON        PTSUNNY   79  64  61 S10       29.97F
NEW BERN       CLOUDY    75  66  73 S5        29.97F
RICHLANDS      CLOUDY    72  64  78 NW5       29.96F
ROCKY MOUNT    PTSUNNY   81  62  52 S8        29.96F
WASHINGTON     MOSUNNY   79  64  59 S7        29.95S
WHITEVILLE     CLOUDY    73  65  74 SE6       29.97F

$$

AMZ130-135-150-152-154-156-158-170-250-252-270-ANZ085-086-088-633-658-670-182000-
MARINE OBSERVATIONS

STATION/POSITION TIME  TEMP    WIND        PRES    WAVE   SWELL
                       AIR SEA DIR/SP/G            HT/PER HT/PER
                 (UTC) (F)     (DEG/KT/KT) (MB)    (FT/S) (FT/S)
CHESAPEAKE LIGHT 1900   56      50/ 12/ 13 1015.5
64 E VA BEACH    1850   58 57   50/  2/  2 1014.4    4/ 7   3/ 7
DUCK             1800   58 54   30/  9/ 10 1014.3
2 E DUCK         1811      57                N/A     3/ 8   2/11
10 NE DUCK       NOT AVBL
OREGON INLET     1800   68 58   80/  5/  8 1015.0
HATTERAS CG      1806   71 66  350/  3/  5 1014.8
DIAMOND BUOY     1850   70 75   30/  8/ 10 1014.5    4/ 8   5/ 8
CAPE LOOKOUT     1900   70     140/  2/  2 1014.4
BEAUFORT LAB     1806   70 63  200/  7/  9 1014.1
27 SE WRIGHTSVLE 1900   68 73   80/  6/ 10   N/A
5 SE WRIGHTSVLE  1900   67 64  150/  2/  2 1015.2
225 S CAPE HAT   1850   70 74   40/  8/ 10 1014.4    6/ 9   5/ 9
41 SE CHARLESTON 1850   70 74   40/  8/ 10 1014.5    3/ 8   3/ 8

$$



USA.gov is the U.S. government's official web portal to all federal, state and local government web resources and services.